Tiempo cada hora Caucel

Hoy, 18 Abril, Domingo

Tiempo Temperatura Precipitaciones Viento Presión Humedad
00:00 +28°C° 0 mm 3 mps 756 mmHg 71%
01:00 +28°C° 0 mm 3 mps 755 mmHg 74%
02:00 +27°C° 0 mm 3 mps 755 mmHg 77%
03:00 +27°C° 0 mm 3 mps 755 mmHg 81%
04:00 +27°C° 0 mm 3 mps 756 mmHg 81%
05:00 +27°C° 0 mm 3 mps 756 mmHg 82%
06:00 +27°C° 0 mm 3 mps 756 mmHg 83%
07:00 +29°C° 0 mm 3 mps 756 mmHg 72%
08:00 +33°C° 0 mm 3 mps 756 mmHg 61%
09:00 +35°C° 0 mm 3 mps 757 mmHg 50%
10:00 +37°C° 0 mm 3 mps 756 mmHg 44%
11:00 +39°C° 0 mm 3 mps 756 mmHg 39%
12:00 +42°C° 0 mm 3 mps 755 mmHg 33%
13:00 +38°C° 0.4 mm 3 mps 755 mmHg 44%
14:00 +35°C° 0.4 mm 3 mps 755 mmHg 56%
15:00 +31°C° 0.4 mm 3 mps 754 mmHg 67%
16:00 +29°C° 3.8 mm 3 mps 755 mmHg 72%
17:00 +27°C° 3.8 mm 2 mps 755 mmHg 77%
18:00 +24°C° 3.8 mm 2 mps 756 mmHg 82%
19:00 +24°C° 0.1 mm 2 mps 756 mmHg 82%
20:00 +24°C° 0.1 mm 2 mps 757 mmHg 83%
21:00 +24°C° 0.1 mm 1 mps 758 mmHg 83%
22:00 +24°C° 0 mm 1 mps 757 mmHg 85%
23:00 +24°C° 0 mm 1 mps 757 mmHg 87%

Mañana, 19 Abril, Lunes

Tiempo Temperatura Precipitaciones Viento Presión Humedad
00:00 +24°C° 0 mm 1 mps 757 mmHg 89%
01:00 +24°C° 0 mm 1 mps 757 mmHg 89%
02:00 +24°C° 0 mm 1 mps 757 mmHg 89%
03:00 +24°C° 0 mm 1 mps 757 mmHg 89%
04:00 +24°C° 0 mm 1 mps 757 mmHg 89%
05:00 +24°C° 0 mm 1 mps 757 mmHg 90%
06:00 +23°C° 0 mm 1 mps 758 mmHg 90%
07:00 +26°C° 0 mm 2 mps 758 mmHg 80%
08:00 +29°C° 0 mm 2 mps 758 mmHg 70%
09:00 +32°C° 0 mm 2 mps 758 mmHg 60%
10:00 +34°C° 0 mm 2 mps 758 mmHg 54%
11:00 +36°C° 0 mm 2 mps 757 mmHg 48%
12:00 +38°C° 0 mm 2 mps 757 mmHg 42%
13:00 +36°C° 0 mm 3 mps 756 mmHg 47%
14:00 +34°C° 0 mm 3 mps 756 mmHg 53%
15:00 +33°C° 0 mm 3 mps 755 mmHg 58%
16:00 +31°C° 0 mm 3 mps 755 mmHg 62%
17:00 +30°C° 0 mm 3 mps 756 mmHg 66%
18:00 +29°C° 0 mm 3 mps 756 mmHg 70%
19:00 +29°C° 0 mm 2 mps 756 mmHg 75%
20:00 +28°C° 0 mm 2 mps 757 mmHg 80%
21:00 +27°C° 0 mm 1 mps 757 mmHg 85%
22:00 +27°C° 0 mm 1 mps 757 mmHg 85%
23:00 +27°C° 0 mm 1 mps 757 mmHg 86%

Pasado mañana, 20 Abril, Martes

Tiempo Temperatura Precipitaciones Viento Presión Humedad
00:00 +26°C° 0 mm 1 mps 757 mmHg 87%
01:00 +26°C° 0 mm 1 mps 757 mmHg 88%
02:00 +26°C° 0 mm 1 mps 756 mmHg 89%
03:00 +25°C° 0 mm 2 mps 756 mmHg 90%
04:00 +25°C° 0 mm 2 mps 756 mmHg 92%
05:00 +25°C° 0 mm 1 mps 757 mmHg 94%
06:00 +25°C° 0 mm 1 mps 757 mmHg 96%
07:00 +28°C° 0 mm 2 mps 758 mmHg 83%
08:00 +30°C° 0 mm 2 mps 758 mmHg 71%
09:00 +34°C° 0 mm 3 mps 758 mmHg 59%
10:00 +35°C° 0.1 mm 3 mps 758 mmHg 55%
11:00 +35°C° 0.1 mm 2 mps 757 mmHg 52%
12:00 +36°C° 0.1 mm 2 mps 757 mmHg 48%
13:00 +35°C° 0.5 mm 2 mps 757 mmHg 56%
14:00 +32°C° 0.5 mm 2 mps 756 mmHg 64%
15:00 +31°C° 0.5 mm 2 mps 756 mmHg 71%
16:00 +30°C° 0.2 mm 2 mps 756 mmHg 74%
17:00 +29°C° 0.2 mm 2 mps 757 mmHg 77%
18:00 +29°C° 0.2 mm 2 mps 757 mmHg 80%
19:00 +28°C° 0.3 mm 2 mps 757 mmHg 84%
20:00 +27°C° 0.3 mm 2 mps 758 mmHg 87%
21:00 +27°C° 0.3 mm 2 mps 759 mmHg 91%
22:00 +27°C° 0.1 mm 1 mps 759 mmHg 91%
23:00 +26°C° 0.1 mm 1 mps 758 mmHg 92%

21 Abril, Miércoles

Tiempo Temperatura Precipitaciones Viento Presión Humedad
00:00 +26°C° 0.1 mm 1 mps 758 mmHg 92%
01:00 +26°C° 0 mm 1 mps 758 mmHg 93%
02:00 +25°C° 0 mm 1 mps 758 mmHg 94%
03:00 +25°C° 0 mm 1 mps 758 mmHg 94%
04:00 +25°C° 0 mm 1 mps 758 mmHg 94%
05:00 +25°C° 0 mm 1 mps 759 mmHg 94%
06:00 +25°C° 0 mm 1 mps 759 mmHg 94%
07:00 +28°C° 0 mm 1 mps 759 mmHg 84%
08:00 +30°C° 0 mm 1 mps 760 mmHg 74%
09:00 +32°C° 0 mm 1 mps 760 mmHg 63%
10:00 +32°C° 0.7 mm 2 mps 760 mmHg 62%
11:00 +34°C° 0.7 mm 2 mps 759 mmHg 60%
12:00 +34°C° 0.7 mm 2 mps 759 mmHg 58%
13:00 +34°C° 0.6 mm 3 mps 759 mmHg 57%
14:00 +34°C° 0.6 mm 3 mps 758 mmHg 57%
15:00 +35°C° 0.6 mm 3 mps 758 mmHg 56%
16:00 +33°C° 0.1 mm 4 mps 758 mmHg 63%
17:00 +30°C° 0.1 mm 4 mps 758 mmHg 69%
18:00 +29°C° 0.1 mm 5 mps 758 mmHg 76%
19:00 +28°C° 0.7 mm 4 mps 759 mmHg 81%
20:00 +27°C° 0.7 mm 3 mps 760 mmHg 86%
21:00 +26°C° 0.7 mm 2 mps 760 mmHg 91%
22:00 +26°C° 0 mm 2 mps 760 mmHg 91%
23:00 +25°C° 0 mm 2 mps 760 mmHg 92%

22 Abril, Jueves

Tiempo Temperatura Precipitaciones Viento Presión Humedad
00:00 +25°C° 0 mm 1 mps 760 mmHg 93%
01:00 +25°C° 0 mm 1 mps 760 mmHg 94%
02:00 +25°C° 0 mm 1 mps 759 mmHg 94%
03:00 +25°C° 0 mm 1 mps 759 mmHg 95%
04:00 +25°C° 0 mm 1 mps 760 mmHg 95%
05:00 +24°C° 0 mm 1 mps 760 mmHg 95%
06:00 +24°C° 0 mm 1 mps 760 mmHg 95%
07:00 +27°C° 0 mm 2 mps 761 mmHg 84%
08:00 +29°C° 0 mm 2 mps 761 mmHg 74%
09:00 +31°C° 0 mm 3 mps 761 mmHg 63%
10:00 +34°C° 0 mm 3 mps 761 mmHg 54%
11:00 +35°C° 0 mm 3 mps 760 mmHg 45%
12:00 +37°C° 0 mm 4 mps 760 mmHg 36%
13:00 +37°C° 0 mm 4 mps 759 mmHg 35%
14:00 +38°C° 0 mm 4 mps 758 mmHg 34%
15:00 +38°C° 0 mm 4 mps 758 mmHg 33%
16:00 +36°C° 0 mm 5 mps 758 mmHg 44%
17:00 +33°C° 0 mm 5 mps 758 mmHg 55%
18:00 +30°C° 0 mm 5 mps 758 mmHg 65%
19:00 +29°C° 0 mm 5 mps 759 mmHg 67%
20:00 +28°C° 0 mm 4 mps 759 mmHg 69%
21:00 +27°C° 0 mm 4 mps 760 mmHg 71%
22:00 +27°C° 0 mm 4 mps 760 mmHg 71%
23:00 +26°C° 0 mm 4 mps 760 mmHg 71%

23 Abril, Viernes

Tiempo Temperatura Precipitaciones Viento Presión Humedad
00:00 +26°C° 0 mm 4 mps 760 mmHg 70%
01:00 +25°C° 0 mm 3 mps 760 mmHg 76%
02:00 +25°C° 0 mm 3 mps 760 mmHg 81%
03:00 +24°C° 0 mm 3 mps 760 mmHg 86%
04:00 +24°C° 0 mm 3 mps 760 mmHg 88%
05:00 +24°C° 0 mm 3 mps 760 mmHg 90%
06:00 +24°C° 0 mm 3 mps 760 mmHg 91%
07:00 +26°C° 0 mm 3 mps 760 mmHg 80%
08:00 +29°C° 0 mm 4 mps 760 mmHg 69%
09:00 +32°C° 0 mm 5 mps 760 mmHg 57%
10:00 +34°C° 0 mm 4 mps 760 mmHg 48%
11:00 +36°C° 0 mm 4 mps 759 mmHg 39%
12:00 +38°C° 0 mm 4 mps 758 mmHg 30%
13:00 +38°C° 0 mm 4 mps 758 mmHg 28%
14:00 +40°C° 0 mm 4 mps 757 mmHg 27%
15:00 +40°C° 0 mm 5 mps 756 mmHg 25%
16:00 +38°C° 0 mm 4 mps 756 mmHg 29%
17:00 +36°C° 0 mm 4 mps 756 mmHg 34%
18:00 +35°C° 0 mm 4 mps 756 mmHg 38%
19:00 +33°C° 0 mm 4 mps 756 mmHg 45%
20:00 +32°C° 0 mm 5 mps 757 mmHg 52%
21:00 +29°C° 0 mm 5 mps 757 mmHg 58%
22:00 +29°C° 0 mm 5 mps 757 mmHg 64%
23:00 +28°C° 0 mm 5 mps 757 mmHg 70%
Mostrar más

Necesitamos Su Consentimiento

Meteoprog y nuestros Proveedores de Servicios pueden almacenar y acceder a sus datos personales como cookies, identificadores de dispositivo u otras tecnologías similares de su dispositivo y procesar dichos datos para personalizar contenido y anuncios, además de ofrecer funciones de redes sociales y analizar el tráfico.

  • Almacenar y/o acceder a información en su dispositivo

    Se puede almacenar o acceder a cookies, identificadores de dispositivo u otra información de su dispositivo para los fines anteriormente indicados.

  • Anuncios y contenido personalizados, medición de anuncios y contenido, percepciones del público, y desarrollo de productos

    Los anuncios y el contenido pueden personalizarse en base a su perfil. Se pueden añadir más datos para personalizar mejor los anuncios y contenidos. Se puede medir el rendimiento de los anuncios y contenidos. Se puede obtener la percepción sobre el público que ha visto los anuncios y contenidos. Dichos datos pueden usarse para desarrollar o mejorar la experiencia del usuario, sistemas y software.

Al hacer clic en ‘Estoy De Acuerdo’ usted permitirá el uso de las cookies, identificadores de dispositivo, balizas web u otras tecnologías similares indicadas. Su configuración puede cambiarse desde el navegador de su dispositivo.

Para ciertos fines, los intereses legítimos pueden ser considerados por encima del consentimiento. Puede leer más sobre ello en nuestra Política de Privacidad y Cookies.